This is the latest recevied weather packets stored in our database for station/object N6GPM. If no packets are shown the sender has not sent any weather packets the latest 10 day(s).
| Time | Temp. | Humidity | Pressure | Rain* | Wind** | Luminosity | Snow |
|---|---|---|---|---|---|---|---|
| 1787407915 | 25° C | 54% | 1020 hPa | 0 mm | - | 88 W/m² | - |
| 1787407610 | 25° C | 54% | 1020.1 hPa | 0 mm | - | 77 W/m² | - |
| 1787407306 | 24.44° C | 54% | 1020 hPa | 0 mm | - | 66 W/m² | - |
| 1787406996 | 23.89° C | 56% | 1019.9 hPa | 0 mm | - | 54 W/m² | - |
| 1787406692 | 23.89° C | 57% | 1020 hPa | 0 mm | - | 46 W/m² | - |
| 1787406387 | 23.33° C | 57% | 1019.9 hPa | 0 mm | - | 38 W/m² | - |
| 1787406083 | 23.33° C | 57% | 1019.8 hPa | 0 mm | - | 31 W/m² | - |
| 1787405779 | 22.78° C | 58% | 1020 hPa | 0 mm | - | 24 W/m² | - |
| 1787405475 | 22.78° C | 59% | 1019.7 hPa | 0 mm | - | 18 W/m² | - |
| 1787405170 | 22.78° C | 59% | 1019.7 hPa | 0 mm | - | 13 W/m² | - |
| 1787404866 | 22.78° C | 59% | 1019.6 hPa | 0 mm | - | 8 W/m² | - |
| 1787404260 | 22.78° C | 58% | 1019.8 hPa | 0 mm | - | 2 W/m² | - |
| 1787403956 | 22.78° C | 57% | 1019.8 hPa | 0 mm | - | 1 W/m² | - |
| 1787403651 | 22.78° C | 58% | 1019.7 hPa | 0 mm | - | 0 W/m² | - |
| 1787403345 | 22.78° C | 58% | 1019.8 hPa | 0 mm | - | 0 W/m² | - |
| 1787403043 | 22.78° C | 57% | 1019.5 hPa | 0 mm | - | 0 W/m² | - |
| 1787402739 | 22.78° C | 57% | 1019.5 hPa | 0 mm | - | 0 W/m² | - |
| 1787402438 | 22.78° C | 57% | 1019.6 hPa | 0 mm | - | 0 W/m² | - |
| 1787402133 | 22.78° C | 57% | 1019.5 hPa | 0 mm | - | 0 W/m² | - |
| 1787401827 | 22.78° C | 57% | 1019.4 hPa | 0 mm | - | 0 W/m² | - |
| 1787401524 | 22.78° C | 57% | 1019.6 hPa | 0 mm | - | 0 W/m² | - |
| 1787401219 | 22.78° C | 57% | 1019.5 hPa | 0 mm | - | 0 W/m² | - |
| 1787400915 | 22.78° C | 57% | 1019.6 hPa | 0 mm | - | 0 W/m² | - |
| 1787400609 | 22.78° C | 59% | 1019.5 hPa | 0 mm | - | 0 W/m² | - |
| 1787400304 | 22.78° C | 57% | 1019.4 hPa | 0 mm | - | 0 W/m² | - |
* Rain latest hour (hover to see other rain measurements)
** Current wind speed in m/s (hover to see current wind gust speed)